| time (UTC) | temp F | wind direction | speed MPH | gust MPH | rain 1hr in | rain 24hr in | rain mn in | humidity % | barometer mb |
| 20260905135403 | 59 | 88 | 0.0 | 0.0 | 0.00 | 0.00 | 0.00 | 49 | 1031.5 |
| 20260905134903 | 59 | 88 | 0.0 | 0.0 | 0.00 | 0.00 | 0.00 | 48 | 1031.4 |
| 20260905134403 | 59 | 88 | 0.0 | 0.0 | 0.00 | 0.00 | 0.00 | 49 | 1031.4 |
| 20260905133403 | 59 | 88 | 0.0 | 0.0 | 0.00 | 0.00 | 0.00 | 48 | 1031.4 |
| 20260905132904 | 59 | 88 | 1.0 | 2.0 | 0.00 | 0.00 | 0.00 | 48 | 1031.4 |
| 20260905132403 | 59 | 88 | 1.0 | 3.0 | 0.00 | 0.00 | 0.00 | 48 | 1031.4 |
| 20260905131903 | 59 | 88 | 1.0 | 2.0 | 0.00 | 0.00 | 0.00 | 49 | 1031.4 |
| 20260905131403 | 59 | 88 | 1.0 | 3.0 | 0.00 | 0.00 | 0.00 | 49 | 1031.4 |
| 20260905130903 | 58 | 94 | 0.0 | 3.0 | 0.00 | 0.00 | 0.00 | 49 | 1031.3 |
| 20260905130403 | 58 | 88 | 0.0 | 0.0 | 0.00 | 0.00 | 0.00 | 49 | 1031.4 |
| 20260905125903 | 59 | 85 | 0.0 | 0.0 | 0.00 | 0.00 | 0.00 | 49 | 1031.3 |
| 20260905125404 | 59 | 85 | 0.0 | 0.0 | 0.00 | 0.00 | 0.00 | 48 | 1031.2 |
| 20260905124904 | 59 | 85 | 0.0 | 0.0 | 0.00 | 0.00 | 0.00 | 47 | 1031.1 |
| 20260905124403 | 59 | 85 | 0.0 | 0.0 | 0.00 | 0.00 | 0.00 | 47 | 1031.0 |
| 20260905123904 | 59 | 85 | 0.0 | 0.0 | 0.00 | 0.00 | 0.00 | 47 | 1031.0 |
| 20260905123403 | 59 | 85 | 0.0 | 0.0 | 0.00 | 0.00 | 0.00 | 47 | 1031.0 |
| 20260905122903 | 59 | 85 | 0.0 | 0.0 | 0.00 | 0.00 | 0.00 | 47 | 1030.9 |
| 20260905122403 | 59 | 85 | 0.0 | 0.0 | 0.00 | 0.00 | 0.00 | 47 | 1031.0 |
| 20260905121903 | 59 | 85 | 0.0 | 0.0 | 0.00 | 0.00 | 0.00 | 47 | 1031.0 |
| 20260905121403 | 59 | 85 | 0.0 | 0.0 | 0.00 | 0.00 | 0.00 | 47 | 1030.9 |
| 20260905120903 | 60 | 85 | 0.0 | 2.0 | 0.00 | 0.00 | 0.00 | 47 | 1030.9 |
| 20260905120404 | 60 | 111 | 0.0 | 0.0 | 0.00 | 0.00 | 0.00 | 47 | 1030.9 |
| 20260905115904 | 60 | 111 | 0.0 | 0.0 | 0.00 | 0.00 | 0.00 | 46 | 1031.0 |
| 20260905115403 | 60 | 111 | 0.0 | 0.0 | 0.00 | 0.00 | 0.00 | 46 | 1030.9 |
| 20260905114903 | 60 | 111 | 0.0 | 0.0 | 0.00 | 0.00 | 0.00 | 46 | 1030.9 |
| 20260905114404 | 60 | 111 | 0.0 | 0.0 | 0.00 | 0.00 | 0.00 | 45 | 1030.9 |
| 20260905113903 | 60 | 111 | 0.0 | 0.0 | 0.00 | 0.00 | 0.00 | 46 | 1030.9 |
| 20260905113403 | 60 | 111 | 0.0 | 0.0 | 0.00 | 0.00 | 0.00 | 46 | 1030.8 |
| 20260905112904 | 60 | 111 | 0.0 | 0.0 | 0.00 | 0.00 | 0.00 | 46 | 1030.9 |
| 20260905112404 | 60 | 111 | 0.0 | 0.0 | 0.00 | 0.00 | 0.00 | 46 | 1030.9 |
| 20260905111903 | 61 | 111 | 0.0 | 0.0 | 0.00 | 0.00 | 0.00 | 45 | 1031.0 |
| 20260905111403 | 61 | 111 | 0.0 | 0.0 | 0.00 | 0.00 | 0.00 | 44 | 1031.0 |
| 20260905110904 | 61 | 111 | 0.0 | 0.0 | 0.00 | 0.00 | 0.00 | 44 | 1030.9 |
| 20260905110403 | 62 | 111 | 0.0 | 0.0 | 0.00 | 0.00 | 0.00 | 44 | 1030.9 |
| 20260905105903 | 62 | 111 | 0.0 | 0.0 | 0.00 | 0.00 | 0.00 | 44 | 1031.0 |
| 20260905105404 | 62 | 111 | 0.0 | 0.0 | 0.00 | 0.00 | 0.00 | 44 | 1031.0 |
| 20260905104903 | 62 | 111 | 0.0 | 0.0 | 0.00 | 0.00 | 0.00 | 44 | 1031.0 |
| 20260905104403 | 62 | 111 | 0.0 | 0.0 | 0.00 | 0.00 | 0.00 | 44 | 1031.1 |
| 20260905103904 | 62 | 111 | 0.0 | 2.0 | 0.00 | 0.00 | 0.00 | 44 | 1031.1 |
| 20260905103404 | 62 | 111 | 2.0 | 3.0 | 0.00 | 0.00 | 0.00 | 44 | 1031.1 |
| 20260905102903 | 62 | 108 | 0.0 | 0.0 | 0.00 | 0.00 | 0.00 | 44 | 1031.1 |
| 20260905102403 | 62 | 71 | 0.0 | 0.0 | 0.00 | 0.00 | 0.00 | 43 | 1031.2 |
| 20260905101903 | 63 | 71 | 0.0 | 0.0 | 0.00 | 0.00 | 0.00 | 43 | 1031.2 |
| 20260905101403 | 63 | 71 | 0.0 | 0.0 | 0.00 | 0.00 | 0.00 | 42 | 1031.1 |
| 20260905100904 | 63 | 71 | 0.0 | 0.0 | 0.00 | 0.00 | 0.00 | 43 | 1031.1 |
| 20260905094903 | 63 | 71 | 0.0 | 0.0 | 0.00 | 0.00 | 0.00 | 43 | 1031.1 |
| 20260905094403 | 63 | 71 | 0.0 | 0.0 | 0.00 | 0.00 | 0.00 | 43 | 1031.1 |
| 20260905093903 | 63 | 71 | 0.0 | 0.0 | 0.00 | 0.00 | 0.00 | 44 | 1031.2 |
| 20260905092904 | 63 | 71 | 0.0 | 0.0 | 0.00 | 0.00 | 0.00 | 44 | 1031.2 |
| 20260905092403 | 63 | 71 | 0.0 | 0.0 | 0.00 | 0.00 | 0.00 | 43 | 1031.1 |
| 20260905091903 | 63 | 71 | 0.0 | 0.0 | 0.00 | 0.00 | 0.00 | 43 | 1031.1 |
| 20260905091403 | 63 | 71 | 0.0 | 0.0 | 0.00 | 0.00 | 0.00 | 43 | 1031.0 |
| 20260905090903 | 64 | 71 | 0.0 | 0.0 | 0.00 | 0.00 | 0.00 | 42 | 1031.2 |
| 20260905090403 | 64 | 71 | 0.0 | 1.0 | 0.00 | 0.00 | 0.00 | 42 | 1031.2 |
| 20260905085903 | 64 | 71 | 0.0 | 0.0 | 0.00 | 0.00 | 0.00 | 42 | 1031.1 |
| 20260905085404 | 64 | 71 | 0.0 | 0.0 | 0.00 | 0.00 | 0.00 | 41 | 1031.2 |
| 20260905084903 | 64 | 71 | 0.0 | 0.0 | 0.00 | 0.00 | 0.00 | 41 | 1031.2 |
| 20260905084403 | 64 | 71 | 0.0 | 0.0 | 0.00 | 0.00 | 0.00 | 41 | 1031.3 |
| 20260905083903 | 65 | 71 | 0.0 | 0.0 | 0.00 | 0.00 | 0.00 | 40 | 1031.3 |
| 20260905083403 | 65 | 71 | 0.0 | 0.0 | 0.00 | 0.00 | 0.00 | 40 | 1031.4 |
| 20260905082904 | 65 | 71 | 0.0 | 0.0 | 0.00 | 0.00 | 0.00 | 39 | 1031.4 |
| 20260905081904 | 65 | 71 | 0.0 | 0.0 | 0.00 | 0.00 | 0.00 | 39 | 1031.5 |
| 20260905081404 | 65 | 71 | 0.0 | 0.0 | 0.00 | 0.00 | 0.00 | 38 | 1031.6 |
| 20260905080904 | 66 | 71 | 0.0 | 0.0 | 0.00 | 0.00 | 0.00 | 39 | 1031.6 |
| 20260905080405 | 66 | 71 | 0.0 | 0.0 | 0.00 | 0.00 | 0.00 | 39 | 1031.7 |
| 20260905075904 | 66 | 71 | 0.0 | 0.0 | 0.00 | 0.00 | 0.00 | 39 | 1031.7 |
| 20260905075403 | 66 | 71 | 0.0 | 0.0 | 0.00 | 0.00 | 0.00 | 40 | 1031.7 |
| 20260905074903 | 66 | 71 | 0.0 | 0.0 | 0.00 | 0.00 | 0.00 | 39 | 1031.7 |
| 20260905074404 | 67 | 71 | 0.0 | 0.0 | 0.00 | 0.00 | 0.00 | 39 | 1031.7 |
| 20260905073904 | 67 | 102 | 0.0 | 0.0 | 0.00 | 0.00 | 0.00 | 39 | 1031.6 |
| 20260905073403 | 67 | 123 | 0.0 | 0.0 | 0.00 | 0.00 | 0.00 | 40 | 1031.6 |
| 20260905072903 | 67 | 123 | 0.0 | 0.0 | 0.00 | 0.00 | 0.00 | 39 | 1031.6 |
| 20260905072404 | 67 | 123 | 0.0 | 0.0 | 0.00 | 0.00 | 0.00 | 39 | 1031.5 |
| 20260905071903 | 67 | 123 | 0.0 | 0.0 | 0.00 | 0.00 | 0.00 | 38 | 1031.5 |
| 20260905071404 | 68 | 123 | 0.0 | 0.0 | 0.00 | 0.00 | 0.00 | 38 | 1031.5 |
| 20260905070903 | 68 | 119 | 0.0 | 0.0 | 0.00 | 0.00 | 0.00 | 37 | 1031.4 |
| 20260905070403 | 68 | 115 | 0.0 | 0.0 | 0.00 | 0.00 | 0.00 | 37 | 1031.4 |
| 20260905065404 | 68 | 115 | 1.0 | 3.0 | 0.00 | 0.00 | 0.00 | 36 | 1031.3 |
| 20260905064904 | 68 | 95 | 0.0 | 1.0 | 0.00 | 0.00 | 0.00 | 35 | 1031.2 |
| 20260905064403 | 69 | 95 | 0.0 | 0.0 | 0.00 | 0.00 | 0.00 | 35 | 1031.2 |
| 20260905063904 | 69 | 129 | 0.0 | 0.0 | 0.00 | 0.00 | 0.00 | 35 | 1031.3 |
| 20260905062904 | 69 | 129 | 0.0 | 3.0 | 0.00 | 0.00 | 0.00 | 33 | 1031.3 |
| 20260905062403 | 69 | 129 | 2.0 | 3.0 | 0.00 | 0.00 | 0.00 | 33 | 1031.3 |
| 20260905061904 | 69 | 127 | 0.0 | 2.0 | 0.00 | 0.00 | 0.00 | 32 | 1031.3 |
| 20260905060403 | 70 | 148 | 0.0 | 0.0 | 0.00 | 0.00 | 0.00 | 30 | 1031.2 |
| 20260905055403 | 71 | 148 | 0.0 | 0.0 | 0.00 | 0.00 | 0.00 | 29 | 1031.1 |
| 20260905054904 | 71 | 149 | 0.0 | 0.0 | 0.00 | 0.00 | 0.00 | 29 | 1031.2 |
| 20260905054404 | 71 | 148 | 0.0 | 0.0 | 0.00 | 0.00 | 0.00 | 28 | 1031.2 |
| 20260905053904 | 71 | 148 | 0.0 | 1.0 | 0.00 | 0.00 | 0.00 | 26 | 1031.1 |
| 20260905053403 | 72 | 191 | 0.0 | 0.0 | 0.00 | 0.00 | 0.00 | 25 | 1031.2 |
| 20260905052904 | 72 | 205 | 0.0 | 0.0 | 0.00 | 0.00 | 0.00 | 25 | 1031.2 |
| 20260905052403 | 72 | 85 | 0.0 | 0.0 | 0.00 | 0.00 | 0.00 | 25 | 1031.1 |
| 20260905051903 | 73 | 85 | 0.0 | 0.0 | 0.00 | 0.00 | 0.00 | 25 | 1031.2 |
| 20260905051403 | 73 | 85 | 0.0 | 0.0 | 0.00 | 0.00 | 0.00 | 25 | 1031.2 |
| 20260905050904 | 73 | 85 | 0.0 | 0.0 | 0.00 | 0.00 | 0.00 | 24 | 1031.2 |
| 20260905050403 | 73 | 85 | 0.0 | 0.0 | 0.00 | 0.00 | 0.00 | 24 | 1031.2 |
| 20260905045903 | 73 | 85 | 0.0 | 0.0 | 0.00 | 0.00 | 0.00 | 25 | 1031.1 |
| 20260905045403 | 73 | 85 | 0.0 | 0.0 | 0.00 | 0.00 | 0.00 | 26 | 1031.1 |
| 20260905044904 | 73 | 85 | 0.0 | 0.0 | 0.00 | 0.00 | 0.00 | 23 | 1031.2 |
| 20260905044403 | 74 | 85 | 0.0 | 0.0 | 0.00 | 0.00 | 0.00 | 21 | 1031.2 |
| 20260905043903 | 74 | 85 | 0.0 | 0.0 | 0.00 | 0.00 | 0.00 | 20 | 1031.2 |
| 20260905043404 | 74 | 85 | 0.0 | 0.0 | 0.00 | 0.00 | 0.00 | 20 | 1031.1 |
| 20260905042403 | 74 | 85 | 0.0 | 0.0 | 0.00 | 0.00 | 0.00 | 19 | 1031.2 |
| 20260905041403 | 74 | 85 | 0.0 | 0.0 | 0.00 | 0.00 | 0.00 | 19 | 1031.1 |
| 20260905040903 | 74 | 85 | 0.0 | 0.0 | 0.00 | 0.00 | 0.00 | 18 | 1031.0 |
| 20260905035903 | 74 | 85 | 2.0 | 3.0 | 0.00 | 0.00 | 0.00 | 19 | 1030.8 |
| 20260905035403 | 74 | 109 | 0.0 | 2.0 | 0.00 | 0.00 | 0.00 | 19 | 1030.8 |
| 20260905034903 | 75 | 88 | 1.0 | 3.0 | 0.00 | 0.00 | 0.00 | 20 | 1030.7 |
| 20260905034403 | 75 | 157 | 0.0 | 0.0 | 0.00 | 0.00 | 0.00 | 20 | 1030.6 |
| 20260905033903 | 75 | 158 | 2.0 | 3.0 | 0.00 | 0.00 | 0.00 | 20 | 1030.6 |
| 20260905033403 | 75 | 163 | 2.0 | 3.0 | 0.00 | 0.00 | 0.00 | 20 | 1030.7 |
| 20260905032903 | 76 | 141 | 2.0 | 3.0 | 0.00 | 0.00 | 0.00 | 20 | 1030.6 |
| 20260905032403 | 76 | 160 | 0.0 | 2.0 | 0.00 | 0.00 | 0.00 | 19 | 1030.4 |
| 20260905031903 | 76 | 171 | 0.0 | 0.0 | 0.00 | 0.00 | 0.00 | 19 | 1030.4 |
| 20260905031403 | 76 | 283 | 0.0 | 0.0 | 0.00 | 0.00 | 0.00 | 19 | 1030.3 |
| 20260905030903 | 76 | 283 | 0.0 | 2.0 | 0.00 | 0.00 | 0.00 | 19 | 1030.3 |
| 20260905030404 | 76 | 283 | 2.0 | 3.0 | 0.00 | 0.00 | 0.00 | 20 | 1030.3 |
| 20260905025903 | 77 | 278 | 1.0 | 5.0 | 0.00 | 0.00 | 0.00 | 20 | 1030.2 |
| 20260905024903 | 77 | 225 | 4.0 | 7.0 | 0.00 | 0.00 | 0.00 | 19 | 1029.9 |
| 20260905024403 | 78 | 233 | 3.0 | 6.0 | 0.00 | 0.00 | 0.00 | 19 | 1029.9 |
| 20260905023903 | 78 | 223 | 3.0 | 5.0 | 0.00 | 0.00 | 0.00 | 19 | 1029.8 |
| 20260905023405 | 78 | 227 | 4.0 | 8.0 | 0.00 | 0.00 | 0.00 | 19 | 1029.8 |
| 20260905022903 | 78 | 219 | 5.0 | 8.0 | 0.00 | 0.00 | 0.00 | 19 | 1029.8 |
| 20260905022403 | 78 | 219 | 6.0 | 9.0 | 0.00 | 0.00 | 0.00 | 19 | 1029.8 |
| 20260905021903 | 79 | 217 | 5.0 | 7.0 | 0.00 | 0.00 | 0.00 | 19 | 1029.7 |
| 20260905020903 | 79 | 215 | 6.0 | 9.0 | 0.00 | 0.00 | 0.00 | 20 | 1029.6 |
| 20260905020403 | 80 | 216 | 8.0 | 12.0 | 0.00 | 0.00 | 0.00 | 19 | 1029.6 |
| 20260905015903 | 80 | 232 | 7.0 | 12.0 | 0.00 | 0.00 | 0.00 | 19 | 1029.6 |
| 20260905015404 | 80 | 229 | 7.0 | 12.0 | 0.00 | 0.00 | 0.00 | 19 | 1029.6 |
| 20260905014903 | 81 | 211 | 6.0 | 12.0 | 0.00 | 0.00 | 0.00 | 20 | 1029.6 |
| 20260905014403 | 81 | 216 | 6.0 | 10.0 | 0.00 | 0.00 | 0.00 | 21 | 1029.6 |
| 20260905013903 | 81 | 226 | 5.0 | 9.0 | 0.00 | 0.00 | 0.00 | 21 | 1029.6 |
| 20260905013403 | 81 | 219 | 7.0 | 12.0 | 0.00 | 0.00 | 0.00 | 20 | 1029.6 |
| 20260905012903 | 82 | 221 | 7.0 | 12.0 | 0.00 | 0.00 | 0.00 | 21 | 1029.5 |
| 20260905012404 | 82 | 215 | 8.0 | 14.0 | 0.00 | 0.00 | 0.00 | 22 | 1029.5 |
| 20260905011903 | 82 | 193 | 6.0 | 9.0 | 0.00 | 0.00 | 0.00 | 21 | 1029.5 |
| 20260905011403 | 82 | 188 | 6.0 | 13.0 | 0.00 | 0.00 | 0.00 | 22 | 1029.6 |
| 20260905010903 | 83 | 217 | 9.0 | 14.0 | 0.00 | 0.00 | 0.00 | 20 | 1029.5 |
| 20260905010404 | 83 | 211 | 8.0 | 16.0 | 0.00 | 0.00 | 0.00 | 20 | 1029.5 |
| 20260905005904 | 83 | 222 | 10.0 | 16.0 | 0.00 | 0.00 | 0.00 | 20 | 1029.5 |
| 20260905005403 | 83 | 213 | 12.0 | 18.0 | 0.00 | 0.00 | 0.00 | 21 | 1029.4 |
| 20260905004903 | 84 | 218 | 12.0 | 20.0 | 0.00 | 0.00 | 0.00 | 22 | 1029.4 |
| 20260905004403 | 84 | 192 | 7.0 | 14.0 | 0.00 | 0.00 | 0.00 | 23 | 1029.4 |
| 20260905003904 | 84 | 191 | 7.0 | 14.0 | 0.00 | 0.00 | 0.00 | 22 | 1029.3 |
| 20260905003403 | 85 | 212 | 12.0 | 17.0 | 0.00 | 0.00 | 0.00 | 21 | 1029.3 |
| 20260905002903 | 85 | 220 | 8.0 | 15.0 | 0.00 | 0.00 | 0.00 | 22 | 1029.3 |
| 20260905002404 | 85 | 196 | 6.0 | 14.0 | 0.00 | 0.00 | 0.00 | 23 | 1029.1 |
| 20260905001903 | 85 | 207 | 12.0 | 16.0 | 0.00 | 0.00 | 0.00 | 21 | 1029.1 |
| 20260905001403 | 86 | 206 | 8.0 | 13.0 | 0.00 | 0.00 | 0.00 | 22 | 1029.1 |
| 20260905000904 | 86 | 213 | 6.0 | 14.0 | 0.00 | 0.00 | 0.00 | 23 | 1029.1 |
| 20260905000404 | 86 | 186 | 9.0 | 15.0 | 0.00 | 0.00 | 0.00 | 23 | 1029.1 |
| 20260904235403 | 86 | 217 | 7.0 | 14.0 | 0.00 | 0.00 | 0.00 | 24 | 1029.2 |
| 20260904234904 | 87 | 212 | 10.0 | 15.0 | 0.00 | 0.00 | 0.00 | 23 | 1029.1 |
| 20260904234404 | 87 | 212 | 10.0 | 16.0 | 0.00 | 0.00 | 0.00 | 22 | 1029.1 |
| 20260904233903 | 87 | 211 | 10.0 | 16.0 | 0.00 | 0.00 | 0.00 | 22 | 1029.1 |
| 20260904233403 | 87 | 193 | 7.0 | 12.0 | 0.00 | 0.00 | 0.00 | 23 | 1029.2 |
| 20260904232903 | 87 | 192 | 7.0 | 13.0 | 0.00 | 0.00 | 0.00 | 23 | 1029.2 |
| 20260904232404 | 87 | 196 | 10.0 | 16.0 | 0.00 | 0.00 | 0.00 | 22 | 1029.2 |
| 20260904231903 | 88 | 224 | 9.0 | 16.0 | 0.00 | 0.00 | 0.00 | 22 | 1029.2 |
| 20260904230903 | 88 | 236 | 9.0 | 14.0 | 0.00 | 0.00 | 0.00 | 23 | 1029.2 |
| 20260904230404 | 88 | 207 | 9.0 | 14.0 | 0.00 | 0.00 | 0.00 | 22 | 1029.2 |
| 20260904225903 | 88 | 200 | 6.0 | 12.0 | 0.00 | 0.00 | 0.00 | 22 | 1029.3 |
| 20260904224904 | 88 | 210 | 7.0 | 12.0 | 0.00 | 0.00 | 0.00 | 23 | 1029.3 |
| 20260904224403 | 88 | 191 | 6.0 | 12.0 | 0.00 | 0.00 | 0.00 | 23 | 1029.3 |
| 20260904223904 | 88 | 194 | 7.0 | 16.0 | 0.00 | 0.00 | 0.00 | 24 | 1029.4 |
| 20260904223403 | 88 | 210 | 6.0 | 12.0 | 0.00 | 0.00 | 0.00 | 22 | 1029.4 |
| 20260904222903 | 88 | 195 | 6.0 | 12.0 | 0.00 | 0.00 | 0.00 | 22 | 1029.5 |
| 20260904222403 | 88 | 203 | 4.0 | 12.0 | 0.00 | 0.00 | 0.00 | 22 | 1029.5 |
| 20260904221903 | 88 | 224 | 7.0 | 12.0 | 0.00 | 0.00 | 0.00 | 21 | 1029.5 |
| 20260904220903 | 88 | 185 | 5.0 | 9.0 | 0.00 | 0.00 | 0.00 | 22 | 1029.6 |
| 20260904220404 | 88 | 201 | 7.0 | 12.0 | 0.00 | 0.00 | 0.00 | 22 | 1029.6 |
| 20260904215904 | 88 | 185 | 5.0 | 14.0 | 0.00 | 0.00 | 0.00 | 22 | 1029.7 |
| 20260904215403 | 88 | 211 | 5.0 | 12.0 | 0.00 | 0.00 | 0.00 | 21 | 1029.8 |
| 20260904214903 | 88 | 217 | 7.0 | 13.0 | 0.00 | 0.00 | 0.00 | 21 | 1029.8 |
| 20260904214403 | 88 | 231 | 6.0 | 10.0 | 0.00 | 0.00 | 0.00 | 21 | 1029.8 |
| 20260904213904 | 87 | 235 | 7.0 | 12.0 | 0.00 | 0.00 | 0.00 | 21 | 1029.8 |
| 20260904213403 | 87 | 226 | 7.0 | 13.0 | 0.00 | 0.00 | 0.00 | 20 | 1029.9 |
| 20260904212904 | 87 | 200 | 6.0 | 12.0 | 0.00 | 0.00 | 0.00 | 20 | 1029.9 |
| 20260904212403 | 87 | 269 | 4.0 | 7.0 | 0.00 | 0.00 | 0.00 | 19 | 1029.9 |
| 20260904211404 | 87 | 220 | 5.0 | 9.0 | 0.00 | 0.00 | 0.00 | 21 | 1030.0 |
| 20260904210904 | 86 | 212 | 2.0 | 8.0 | 0.00 | 0.00 | 0.00 | 23 | 1029.9 |
| 20260904210403 | 86 | 183 | 5.0 | 10.0 | 0.00 | 0.00 | 0.00 | 23 | 1029.9 |
| 20260904205903 | 86 | 279 | 4.0 | 10.0 | 0.00 | 0.00 | 0.00 | 22 | 1030.0 |
| 20260904205403 | 86 | 223 | 7.0 | 12.0 | 0.00 | 0.00 | 0.00 | 23 | 1030.0 |
| 20260904204904 | 86 | 178 | 3.0 | 12.0 | 0.00 | 0.00 | 0.00 | 24 | 1030.0 |
| 20260904204404 | 85 | 261 | 2.0 | 3.0 | 0.00 | 0.00 | 0.00 | 25 | 1030.1 |
| 20260904203903 | 85 | 315 | 4.0 | 12.0 | 0.00 | 0.00 | 0.00 | 24 | 1030.1 |
| 20260904203403 | 85 | 270 | 6.0 | 10.0 | 0.00 | 0.00 | 0.00 | 24 | 1030.1 |
| 20260904201403 | 85 | 193 | 3.0 | 8.0 | 0.00 | 0.00 | 0.00 | 29 | 1030.3 |
| 20260904200903 | 84 | 156 | 2.0 | 8.0 | 0.00 | 0.00 | 0.00 | 29 | 1030.3 |
| 20260904200403 | 84 | 214 | 5.0 | 12.0 | 0.00 | 0.00 | 0.00 | 25 | 1030.3 |
| 20260904195904 | 84 | 222 | 2.0 | 12.0 | 0.00 | 0.00 | 0.00 | 27 | 1030.3 |
| 20260904195403 | 83 | 245 | 5.0 | 9.0 | 0.00 | 0.00 | 0.00 | 27 | 1030.4 |
| 20260904194903 | 83 | 125 | 1.0 | 6.0 | 0.00 | 0.00 | 0.00 | 29 | 1030.5 |
| 20260904194404 | 83 | 261 | 4.0 | 10.0 | 0.00 | 0.00 | 0.00 | 29 | 1030.5 |
| 20260904193904 | 82 | 219 | 0.0 | 7.0 | 0.00 | 0.00 | 0.00 | 32 | 1030.6 |
| 20260904193404 | 82 | 240 | 3.0 | 7.0 | 0.00 | 0.00 | 0.00 | 32 | 1030.7 |
| 20260904192904 | 81 | 190 | 5.0 | 8.0 | 0.00 | 0.00 | 0.00 | 32 | 1030.8 |
| 20260904192405 | 81 | 255 | 5.0 | 8.0 | 0.00 | 0.00 | 0.00 | 33 | 1030.8 |
| 20260904191904 | 81 | 198 | 4.0 | 7.0 | 0.00 | 0.00 | 0.00 | 33 | 1030.9 |
| 20260904191403 | 81 | 129 | 2.0 | 6.0 | 0.00 | 0.00 | 0.00 | 33 | 1031.0 |
| 20260904190903 | 81 | 230 | 5.0 | 9.0 | 0.00 | 0.00 | 0.00 | 33 | 1031.1 |
| 20260904190404 | 80 | 159 | 2.0 | 9.0 | 0.00 | 0.00 | 0.00 | 35 | 1031.2 |
| 20260904185903 | 80 | 215 | 4.0 | 8.0 | 0.00 | 0.00 | 0.00 | 34 | 1031.3 |
| 20260904185404 | 80 | 223 | 1.0 | 8.0 | 0.00 | 0.00 | 0.00 | 35 | 1031.4 |
| 20260904184903 | 80 | 185 | 2.0 | 7.0 | 0.00 | 0.00 | 0.00 | 36 | 1031.3 |
| 20260904184403 | 79 | 149 | 1.0 | 5.0 | 0.00 | 0.00 | 0.00 | 38 | 1031.4 |
| 20260904183903 | 79 | 187 | 4.0 | 8.0 | 0.00 | 0.00 | 0.00 | 39 | 1031.4 |
| 20260904183404 | 78 | 238 | 5.0 | 9.0 | 0.00 | 0.00 | 0.00 | 40 | 1031.4 |
| 20260904182904 | 77 | 261 | 2.0 | 3.0 | 0.00 | 0.00 | 0.00 | 42 | 1031.4 |
| 20260904182403 | 77 | 149 | 3.0 | 6.0 | 0.00 | 0.00 | 0.00 | 44 | 1031.5 |
| 20260904181904 | 76 | 165 | 2.0 | 5.0 | 0.00 | 0.00 | 0.00 | 47 | 1031.4 |
| 20260904181403 | 75 | 296 | 1.0 | 3.0 | 0.00 | 0.00 | 0.00 | 48 | 1031.5 |
| 20260904180904 | 75 | 241 | 4.0 | 8.0 | 0.00 | 0.00 | 0.00 | 50 | 1031.5 |
| 20260904180403 | 75 | 302 | 3.0 | 5.0 | 0.00 | 0.00 | 0.00 | 51 | 1031.5 |
| 20260904175904 | 75 | 248 | 3.0 | 6.0 | 0.00 | 0.00 | 0.00 | 51 | 1031.6 |
| 20260904175403 | 74 | 147 | 1.0 | 3.0 | 0.00 | 0.00 | 0.00 | 52 | 1031.7 |
| 20260904174904 | 74 | 284 | 2.0 | 7.0 | 0.00 | 0.00 | 0.00 | 54 | 1031.7 |
| 20260904174403 | 73 | 220 | 2.0 | 7.0 | 0.00 | 0.00 | 0.00 | 55 | 1031.7 |
| 20260904173904 | 73 | 194 | 2.0 | 5.0 | 0.00 | 0.00 | 0.00 | 56 | 1031.7 |
| 20260904173404 | 72 | 219 | 4.0 | 6.0 | 0.00 | 0.00 | 0.00 | 56 | 1031.6 |
| 20260904172404 | 71 | 189 | 1.0 | 3.0 | 0.00 | 0.00 | 0.00 | 58 | 1031.6 |
| 20260904171904 | 71 | 252 | 0.0 | 2.0 | 0.00 | 0.00 | 0.00 | 57 | 1031.6 |
| 20260904171404 | 70 | 264 | 3.0 | 6.0 | 0.00 | 0.00 | 0.00 | 60 | 1031.6 |
| 20260904170904 | 70 | 289 | 1.0 | 3.0 | 0.00 | 0.00 | 0.00 | 60 | 1031.5 |
| 20260904165904 | 70 | 269 | 2.0 | 3.0 | 0.00 | 0.00 | 0.00 | 61 | 1031.5 |
| 20260904165403 | 69 | 172 | 2.0 | 3.0 | 0.00 | 0.00 | 0.00 | 64 | 1031.5 |
| 20260904164403 | 68 | 270 | 1.0 | 3.0 | 0.00 | 0.00 | 0.00 | 69 | 1031.4 |
| 20260904163904 | 68 | 225 | 0.0 | 5.0 | 0.00 | 0.00 | 0.00 | 71 | 1031.3 |
| 20260904163403 | 67 | 234 | 1.0 | 3.0 | 0.00 | 0.00 | 0.00 | 72 | 1031.3 |
| 20260904162903 | 67 | 20 | 2.0 | 3.0 | 0.00 | 0.00 | 0.00 | 73 | 1031.3 |
| 20260904162403 | 67 | 338 | 0.0 | 2.0 | 0.00 | 0.00 | 0.00 | 75 | 1031.2 |
| 20260904161903 | 66 | 322 | 0.0 | 1.0 | 0.00 | 0.00 | 0.00 | 76 | 1031.1 |
| 20260904161403 | 65 | 288 | 1.0 | 3.0 | 0.00 | 0.00 | 0.00 | 77 | 1031.1 |
| 20260904160903 | 65 | 277 | 0.0 | 3.0 | 0.00 | 0.00 | 0.00 | 78 | 1031.2 |
| 20260904160403 | 65 | 331 | 0.0 | 0.0 | 0.00 | 0.00 | 0.00 | 80 | 1031.2 |
| 20260904155904 | 64 | 331 | 0.0 | 0.0 | 0.00 | 0.00 | 0.00 | 81 | 1031.1 |
| 20260904155403 | 64 | 201 | 0.0 | 0.0 | 0.00 | 0.00 | 0.00 | 83 | 1031.1 |
| 20260904154903 | 63 | 195 | 0.0 | 0.0 | 0.00 | 0.00 | 0.00 | 84 | 1031.2 |
| 20260904154403 | 63 | 195 | 0.0 | 0.0 | 0.00 | 0.00 | 0.00 | 86 | 1031.1 |
| 20260904153904 | 62 | 195 | 0.0 | 0.0 | 0.00 | 0.00 | 0.00 | 86 | 1031.2 |
| 20260904152404 | 61 | 227 | 0.0 | 0.0 | 0.00 | 0.00 | 0.00 | 88 | 1031.1 |
| 20260904151903 | 61 | 244 | 1.0 | 3.0 | 0.00 | 0.00 | 0.00 | 87 | 1031.1 |
| 20260904150903 | 60 | 225 | 2.0 | 3.0 | 0.00 | 0.00 | 0.00 | 87 | 1031.1 |
| 20260904150404 | 60 | 225 | 1.0 | 3.0 | 0.00 | 0.00 | 0.00 | 87 | 1031.2 |
| 20260904145903 | 60 | 206 | 1.0 | 3.0 | 0.00 | 0.00 | 0.00 | 88 | 1031.2 |
| 20260904145404 | 60 | 149 | 0.0 | 2.0 | 0.00 | 0.00 | 0.00 | 87 | 1031.3 |
| 20260904144403 | 60 | 159 | 0.0 | 0.0 | 0.00 | 0.00 | 0.00 | 86 | 1031.2 |
| 20260904143903 | 60 | 194 | 0.0 | 0.0 | 0.00 | 0.00 | 0.00 | 86 | 1031.2 |
| 20260904142903 | 59 | 194 | 0.0 | 1.0 | 0.00 | 0.00 | 0.00 | 86 | 1031.1 |
| 20260904142403 | 59 | 194 | 1.0 | 3.0 | 0.00 | 0.00 | 0.00 | 85 | 1031.1 |
| 20260904140403 | 58 | 105 | 0.0 | 0.0 | 0.00 | 0.00 | 0.00 | 79 | 1030.9 |
| 20260904135903 | 58 | 105 | 0.0 | 0.0 | 0.00 | 0.00 | 0.00 | 78 | 1030.8 |